Location: Unspecified
(0.0000°N, 0.0000°E)
Time: 00:51:39
(UTC+00:00)

Vanguard 2 Rocket - Pass Details

Date: 20 December 2018
Orbit: 554 x 3327 km, 32.9° (Epoch: 18 January)

Event Time Altitude Azimuth Distance (km) Brightness Sun altitude
Rises 01:37:07 0° 246° (WSW) 6,103 - -56.3°
Reaches altitude 10° 01:42:03 10° 251° (WSW) 4,630 - -55.4°
Maximum altitude 01:52:56 44° 319° (NW) 1,822 - -53.5°
Drops below altitude 10° 01:59:15 10° 30° (NNE) 2,714 - -52.3°
Sets 02:01:27 0° 38° (NE) 3,419 - -51.8°
